Find Starlink 32771

NORAD ID: 62573 Int'l Des: 2025-006 Owner: SPXS Country: US Constellation: starlink operational
LEOCIRCULAR

リアルタイム位置

3D地球を読み込み中...

Starlink 32771について

説明を読み込み中...

次回通過

Passes for default location (London). Set your location on the main map for personalized predictions.

高度履歴

Loading altitude history...

軌道要素

1 62573U 25006V 26123.99387209 .00018770 00000-0 68960-3 0 9992
2 62573 43.0028 339.9899 0001123 247.2182 112.8551 15.27593362 73326
Epoch: May 3, 2026 • Age: 16 hours

現在のステータス

高度 482.4 km
速度 7.63 km/s
衛星直下点 13.72°N, 105.68°W
打ち上げ日 Jan 10, 2025
運用期間 1.3 years
タイプ internet

技術仕様

分類 Payload
質量 730.00 kg
乾燥質量 700.00 kg
総質量 730.00 kg
長さ 0.30 m
直径 4.10 m
スパン 29.00 m
形状 Box + pan
製造者 SPXS
バスタイプ Starlink V2M
フェーズステータス In Orbit
所有者/国 SPXS/US

Most Searched